Regional Weather Roundup
Issued by NWS Green Bay, WI

Home | Current Version | Previous Version | Text Only | Print | Product List | Glossary On
Versions: 1 2 3 4 5 6 7 8 9 10 11 12 13 14 15 16 17 18 19 20 21 22 23 24 25 26 27 28 29 30 31 32 33 34 35 36 37 38 39 40 41 42 43 44 45 46 47 48 49 50
000
ASUS43 KGRB 231811
RWRGRB

NORTH-CENTRAL AND NORTHEAST WISCONSIN REGIONAL WEATHER ROUNDUP
NATIONAL WEATHER SERVICE GREEN BAY WI
1200 PM CST THU FEB 23 2017

WIZ005-009-010>012-018-019-231900-
NORTH CENTRAL WISCONSIN

CITY           SKY/WX    TMP DP  RH WIND       PRES   REMARKS
IRONWOOD       CLOUDY    33  24  69 NW5       29.92R
MANITOWISH WTR CLOUDY    30  27  88 NW6       29.89S
ARBOR VITAE    CLOUDY    32  29  88 CALM        N/A  FOG
EAGLE RIVER    CLOUDY    32  23  68 N6        29.88S
LAND O LAKES   CLOUDY    32  26  77 NW5       29.89R
RHINELANDER    CLOUDY    35  26  69 N6        29.89R
PHILLIPS       CLOUDY    32  26  78 NE5       29.90S
ANTIGO         MOSUNNY   35  26  68 N7        29.88R
TOMAHAWK       PTSUNNY   36  25  66 N7        29.89S
MERRILL        NOT AVBL
$$

WIZ013-073-231900-
NORTHEAST WISCONSIN

CITY           SKY/WX    TMP DP  RH WIND       PRES   REMARKS
IRON MOUNTAIN  CLOUDY    34  24  67 N10G18    29.87R
MARINETTE      MOSUNNY   39  26  59 NE10      29.89S
OCONTO         MOSUNNY   40  27  60 N10       29.89S
$$

WIZ017-030-035>037-045-231900-
CENTRAL WISCONSIN

CITY           SKY/WX    TMP DP  RH WIND       PRES   REMARKS
MEDFORD        PTSUNNY   38  29  71 N6        29.87F
WAUSAU         MOSUNNY   39  26  59 VRB7      29.87F
MOSINEE        MOSUNNY   37  30  75 NE12      29.89S
MARSHFIELD     SUNNY     41  29  62 NE9       29.86F
WISC RAPIDS    MOSUNNY   43  30  60 N10       29.87F
STEVENS POINT  SUNNY     39  27  62 N8        29.87F
WAUPACA        MOSUNNY   43  30  60 NE9       29.88S
SHAWANO        MOSUNNY   43  31  63 N8        29.89S
CLINTONVILLE   PTSUNNY   41  28  60 N6        29.88F
WAUTOMA        PTSUNNY   44  31  60 N10       29.86F
$$

WIZ038-039-048-051-231900-
FOX VALLEY

CITY           SKY/WX    TMP DP  RH WIND       PRES   REMARKS
NWS GREEN BAY  CLOUDY    40  32  73 N12       29.88F
APPLETON       PTSUNNY   39  27  60 NE13      29.85S
OSHKOSH        CLOUDY    39  30  70 NE13      29.86S
FOND DU LAC    CLOUDY    42  32  67 NE17      29.86R
$$

WIZ022-050-052-231900-
EAST CENTRAL WISCONSIN

CITY           SKY/WX    TMP DP  RH WIND       PRES   REMARKS
EPHRAIM        CLOUDY    35  28  73 N9        29.88S
WASHINGTON ISL CLOUDY    37  27  66 N14       29.88R
STURGEON BAY   CLOUDY    36  29  75 N12       29.89S
MANITOWOC      CLOUDY    39  31  72 N14       29.86S
SHEBOYGAN      CLOUDY    41  34  76 NE13      29.84S
$$

LMZ563-521-522-541>543-231900-
LAKESHORE

STATION/POSITION TIME  TEMP    WIND        PRES    VSBY  WAVE
                       AIR SEA DIR/SP/G                  HT/PER
                 (UTC) (F)     (DEG/KT/KT) (MB)    (MI)  (FT/S)
SHEBOYGAN LKSHOR 1800   36      30/ 19/ 21 1011.0S
KEWAUNEE LKSHORE 1742   38     360/ 10/ 14 1011.6R
NORTHPORT PIER   1740   34     320/  9/ 12 1012.2R
SISTER BAY LKSHO 1705   35     360/ 17/ 20   N/A
CHAMBERS ISLAND  1740   39     350/  6/  8 1012.2R
MENOMINEE LKSHOR 1748   36     340/  9/ 12 1011.5R
$$



USA.gov is the U.S. government's official web portal to all federal, state and local government web resources and services.